Location: Arrodets-la-Barthe
(43.0306°N, 0.2829°E)
Time: 10:38:42
(UTC+00:00)

BlueWalker 3 - Pass Details

Date: 04 December 2022
Orbit: 499 x 517 km, 53.2° (Epoch: 29 January)

Event Time Altitude Azimuth Distance (km) Brightness Sun altitude
Rises 18:34:55 0° 307° (NW) 2,628 6.2 -23.1°
Reaches altitude 10° 18:37:24 10° 320° (NW) 1,735 5.0 -23.6°
Enters shadow 18:39:11 20° 342° (NNW) 1,218 3.9 -23.9°
